Regional Weather Roundup
Issued by NWS Wakefield, VA

Home | Current Version | Previous Version | Text Only | Print | Product List | Glossary Off
Versions: 1 2 3 4 5 6 7 8 9 10 11 12 13 14 15 16 17 18 19 20 21 22 23 24 25 26 27 28 29 30 31 32 33 34 35 36 37 38 39 40 41 42 43 44 45 46 47 48 49 50

774
ASUS41 KAKQ 231914
RWRAKQ

REGIONAL WEATHER ROUNDUP
NATIONAL WEATHER SERVICE WAKEFIELD VA
300 PM EDT WED MAY 23 2018

Note: "fair" indicates few or no clouds below 12,000 feet with no
significant weather and/or obstructions to visibility. * = Denotes
station may not report precipitation (e.g., rain,snow,etc.),
thunder or fog.

VAZ042-051-052>054-056-232000-
NORTHERN VIRGINIA

CITY           SKY/WX    TMP DP  RH WIND       PRES   REMARKS
WASH NATIONAL  PTSUNNY   80  58  46 N16       30.03S
DULLES         FAIR      80  60  50 N13       30.04S
FORT BELVOIR   FAIR      82  58  44 NW7G17    30.02S
QUANTICO       PTSUNNY   82  62  50 N10       30.02F
FREDERICKSBRG* FAIR      83  62  49 N7        30.01S
STAFFORD*      FAIR      83  63  49 N10G18    30.06S
WARRENTON      FAIR      84  56  38 NW9G16    30.03S
CULPEPER*      FAIR     N/A N/A N/A N9        30.04S
MANASSAS*      FAIR      82  62  50 N14G22    30.03S
LEESBURG*      PTSUNNY   79  61  53 NE9G17    30.05F
WINCHESTER     PTSUNNY   77  59  53 N8        30.07S
FRONT ROYAL*   FAIR      81  59  47 NW9       30.05S
LURAY*         MOCLDY    81  55  41 NW7       30.05S
$$

VAZ048-049-060>072-079>083-232000-
CENTRAL AND SOUTH CENTRAL VIRGINIA

CITY           SKY/WX    TMP DP  RH WIND       PRES   REMARKS
RICHMOND       PTSUNNY   83  66  56 NE12      30.00F
CHESTERFIELD*  NOT AVBL
PETERSBURG*    FAIR      85  65  50 N6        30.00F
HANOVER        FAIR      84  67  56 VRB5      30.02S
TAPPAHANNOCK*  FAIR      84  67  56 NW5       30.02S
QUINTON*       MOCLDY    83  69  61 N8        30.00S
CHARLOTTSVILLE FAIR      86  61  42 N8        30.02S
GORDONSVILLE*  FAIR      83  65  54 NE5       30.02S
ORANGE*        FAIR      82  61  47 N7        30.02S
LOUISA*        PTSUNNY   82  66  58 NE7       30.06S
BUMPASS*       FAIR      82  65  56 NE5       30.02S
FARMVILLE*     FAIR      87  67  52 CALM      30.01S
CREWE*         FAIR      84  69  61 CALM      30.01S
FORT PICKETT*  MOCLDY    85  67  55 NW3       30.01F
CHASE CITY*    FAIR      84  68  57 NW3       30.02F
CLARKSVILLE*   MOCLDY    84  68  58 N5        30.02S
SOUTH HILL*    PTSUNNY   87  70  57 W3        30.07S
LAWRENCEVILLE* FAIR      84  68  57 NW6       30.01S
EMPORIA*       PTSUNNY   84  68  58 W3        30.01S
$$

VAZ088>098-232000-
SOUTHEAST VIRGINIA

CITY           SKY/WX    TMP DP  RH WIND       PRES   REMARKS
NORFOLK        FAIR      84  68  58 NE9       29.99R
VIRGINIA BEACH PTSUNNY   85  65  51 N12G20    29.96F THUNDER
NORFOLK NAVAL  FAIR      83  66  56 NE10      30.00S
WEST POINT*    FAIR      83  63  49 NW5       30.02S
SALUDA*        FAIR      82  68  61 N8        30.00S
NEWPORT NEWS   PTSUNNY   85  64  49 N9        30.00R
LANGLEY AFB    FAIR      85  69  59 E8        29.99S
FORT EUSTIS    FAIR      84  69  60 N6        29.98S
WILLIAMSBURG*  FAIR      90  68  48 NE5       30.00S
HR EXEC AP*    FAIR      85  70  60 VRB6      29.99S
FRANKLIN*      PTSUNNY   84  70  62 W5        29.99S
US460-WAKEFLD  PTSUNNY   85  68  56 N6        29.99S
$$

VAZ020-022-025-037-045-232000-
WEST CENTRAL AND SOUTHWEST VIRGINIA

CITY           SKY/WX    TMP DP  RH WIND       PRES   REMARKS
STAUNTON*      FAIR      82  59  45 N8        30.07S
WAYNESBORO*    MOCLDY    80  60  49 N8        30.06S
HOT SPRINGS VA FAIR      73  49  43 N8G17     30.20R
LYNCHBURG      FAIR      85  63  47 W7        30.04F
DANVILLE       FAIR      85  69  58 NW3       30.02F
SOUTH BOSTON*  FAIR      86  66  51 NW7       30.02S
MARTINSVILLE   FAIR      86  66  51 N8        30.06F
ROANOKE        FAIR      85  61  44 NW9       30.07F
BLACKSBURG     PTSUNNY   78  62  58 NW10      30.15S
DUBLIN*        PTSUNNY   78  63  60 NW6       30.13F
MARION*        PTSUNNY   79  64  60 W9        30.17F
HILLSVILLE*    PTSUNNY   76  62  63 NW8       30.14S
RICHLANDS*     FAIR      74  45  34 NW7       30.17F
WISE*          PTSUNNY   73  63  68 N7        30.19S
ABINGDON*      FAIR      79  65  60 NW6       30.14F
$$

MDZ021>025-VAZ099-100-232000-
SOUTHERN MARYLAND AND THE DELMARVA PENINSULA

CITY           SKY/WX    TMP DP  RH WIND       PRES   REMARKS
PATUXENT RIVER FAIR      85  65  51 NW8       30.00R
BAY BRIDGE APT FAIR      77  61  57 N12G21    30.00S
LEONARDTOWN    PTSUNNY   79  63  57 NW6       30.02F
DOVER          MOSUNNY   80  62  54 NW14G22   29.97S
GEORGETOWN     PTSUNNY   81  61  50 N10G18    29.98S
EASTON         PTSUNNY   82  59  44 N12G18    30.03S
CAMBRIDGE      CLOUDY    77  64  65 NW7G14    30.00S
SALISBURY      PTSUNNY   81  62  52 NW12      29.98S
TANGIER        FAIR      81  72  74 NW7       30.00S
OCEAN CITY     FAIR      75  69  81 E8        29.98S
WALLOPS ISLAND FAIR      86  65  49 NW10      29.98S
ACCOMACK*      FAIR      82  68  62 N8G20     30.00S
$$

NCZ012>017-030>032-232000-
NORTH CENTRAL AND EASTERN NORTH CAROLINA

CITY           SKY/WX    TMP DP  RH WIND       PRES   REMARKS
ROANOKE RAPIDS FAIR      82  70  65 SW5       30.01S
RALEIGH        PTSUNNY   86  72  62 SW8       30.02F
ELIZABETH CITY FAIR      85  74  69 SW12      29.98F
AHOSKIE*       FAIR      84  72  67 CALM      30.00S
EDENTON*       FAIR      85  73  65 SW9       30.01F
CURRITUCK*     NOT AVBL
KILL DEVIL HLS FAIR      83  69  63 W3        29.99S
MANTEO         FAIR      83  70  65 W8        30.00F
CAPE HATTERAS  FAIR      78  73  84 SW15G24   30.04F
TARBORO*       NOT AVBL
GOLDSBORO      FAIR      86  70  58 SW8       30.00F
WASHINGTON     FAIR      88  71  57 CALM      30.02S
GREENVILLE     FAIR      86  70  58 W7        30.03S
NEW BERN       FAIR      86  72  62 W7        30.03F
WILMINGTON     PTSUNNY   79  71  76 S20       30.04F THUNDER
$$

VAZ048-232000-
ELSEWHERE

CITY           SKY/WX    TMP DP  RH WIND       PRES   REMARKS
HARRISBURG PA  FAIR      75  60  59 NW14G20   30.02F
BALTIMORE      FAIR      79  58  48 NW9       30.01S
ANNAPOLIS        N/A    N/A N/A N/A MISG      30.00S
ANDREWS AFB    FAIR      79  57  47 NW10G20   30.02R
PHILADELPHIA   FAIR      79  59  50 NW16      29.97S
HENDERSON NC   FAIR      84  67  56 W5        30.02F
GREENSBORO     PTSUNNY   84  66  54 W7        30.04F
ROCKY MOUNT    FAIR      86  71  60 W9        30.01F
$$

VAZ100-232000-
MARINE

STATION/POSITION TIME  TEMP    WIND        PRES    WAVE   SWELL
                       AIR SEA DIR/SP/G            HT/PER HT/PER
                 (UTC) (F)     (DEG/KT/KT) (MB)    (FT/S) (FT/S)
BRANDYWINE LGT   1848   72     340/  9/ 12 1015.3S
CAPE MAY NJ      1848   74 66  320/ 11/ 14 1014.4R
LEWES DE         1842   71 66   10/ 12/ 14 1015.0S
15NM E FENWICK I 1850   69 63  320/ 10/ 12 1015.0F   2/ 8   2/ 8
OCEAN-CITY-INLET 1842   74 62  110/  5/  8 1015.6R
WACHAPREAGUE VA  1848   83 78  290/  5/  9 1015.6R
THOMAS POINT MD  1900   77 68  320/ 19/ 21 1016.8R
GOOSES REEF MD   1900   75      80/  4/  4 1017.0    0
COVE POINT MD    1848   75      10/  4/  5 1016.7R
SOLOMONS ISLAND  1848   79 69  320/  9/ 12 1015.7R
BISHOPS HEAD MD  1848   78 77  290/ 11/ 17 1016.4R
PINEY POINT MD   1848          330/ 12/ 13   N/A
POTOMAC MD       1900   78 74  330/  8/ 10 1015.4    1
CAMBRIDGE MD     1842   77 74              1017.1R
LEWISETTA VA     1848   81 73  340/  8/ 12 1016.0R
RAPPAHANNOCK LGT 1848          350/ 10/ 13 1016.6R
STINGRAY PT      1900   76 76   50/  6/  8 1019.1    1
YORK RVR RNG VA  1848   79      20/ 10/ 11 1016.5R
YORKTOWN VA      1848   81 74  360/  8/  9 1015.5R
DOMINION TERM VA 1848   82     120/  4/  6 1015.9R
KIPTOPEKE VA     1842      73  330/ 10/ 12   N/A
CAPE HENRY VA    1848   77     350/  9/  9   N/A
WILLOUBY STN VA  1848           70/  7/  8   N/A
S CRANEY ISL VA  1848   82      30/  5/  8 1015.3S
CAPE HENRY BUOY  1900      71                N/A     2/ 8
1ST LANDING BUOY 1900   76 74   50/  6/  6 1015.5    1/ 5
64NM E OF VA BCH 1850   72 69  240/ 10/ 10 1016.1S   3/ 5   3/ 5
DUCK PIER NC     1848   80 64  250/ 12/ 15 1015.4F
44100 DUCK FRF   1845      69                N/A     3/ 6
44056 DUCK FRF   1900      67                N/A     2/ 8
OREGON INLET NC  1842   79 77  200/ 16/ 19 1015.9S
HATTERAS NC      1848   77 75  220/ 11/ 18 1016.9F
DIAMOND SHLS NC  1900   76 74  230/ 17/ 19 1017.7
CAPE LOOKOUT NC  1900          210/ 16/ 20 1017.9F
$$




USA.gov is the U.S. government's official web portal to all federal, state and local government web resources and services.